TLM103 VTSM-VOPB

Flight info

Callsign TLM103
Flight time 1h 12m
Altitude 34000
Route DORNA1A DORNA W32 VEGNA DCT TAVUN
Aircraft B738/M-SDGIRWY/S

Departure

Time 2026-04-26 10:26
Airport Samui International Airport (VTSM)

Arrival

Time 2026-04-26 11:39
Airport Veer Savarkar International Airport / INS Utkrosh (VOPB)
Time Latitude Longitude Altitude Speed Heading
2026-04-26 10:09 9.55042 100.06347 65 ft 0 kts 88°
2026-04-26 10:19 9.55042 100.06339 57 ft 3 kts 91°
2026-04-26 10:19 9.55046 100.06319 60 ft 3 kts 124°
2026-04-26 10:19 9.55060 100.06306 63 ft 3 kts 156°
2026-04-26 10:19 9.55079 100.06300 60 ft 2 kts 165°
2026-04-26 10:20 9.55080 100.06299 60 ft 0 kts 165°
2026-04-26 10:22 9.55074 100.06302 61 ft 2 kts 160°
2026-04-26 10:22 9.55054 100.06309 62 ft 4 kts 165°
2026-04-26 10:23 9.55025 100.06303 62 ft 5 kts 209°
2026-04-26 10:23 9.55005 100.06260 62 ft 9 kts 272°
2026-04-26 10:23 9.55052 100.06222 63 ft 10 kts 351°
2026-04-26 10:23 9.55130 100.06212 58 ft 13 kts 352°
2026-04-26 10:24 9.55228 100.06201 56 ft 16 kts 356°
2026-04-26 10:24 9.55342 100.06194 55 ft 17 kts 354°
2026-04-26 10:24 9.55467 100.06181 58 ft 19 kts 355°
2026-04-26 10:24 9.55590 100.06175 58 ft 11 kts
2026-04-26 10:25 9.55653 100.06189 65 ft 8 kts
2026-04-26 10:25 9.55709 100.06184 59 ft 6 kts 329°
2026-04-26 10:25 9.55700 100.06159 66 ft 5 kts 213°
2026-04-26 10:25 9.55687 100.06160 66 ft 0 kts 173°
2026-04-26 10:26 9.55682 100.06161 64 ft 9 kts 173°
2026-04-26 10:26 9.55314 100.06199 55 ft 97 kts 173°
2026-04-26 10:26 9.54384 100.06297 67 ft 169 kts 173°
2026-04-26 10:26 9.53168 100.06469 851 ft 179 kts 160°
2026-04-26 10:27 9.52158 100.07123 1932 ft 181 kts 147°
2026-04-26 10:27 9.50883 100.07613 2403 ft 206 kts 160°
2026-04-26 10:27 9.49504 100.08089 2947 ft 217 kts 158°
2026-04-26 10:27 9.47994 100.08371 3559 ft 225 kts 182°
2026-04-26 10:28 9.46502 100.07912 4428 ft 228 kts 208°
2026-04-26 10:28 9.45315 100.06761 4786 ft 258 kts 238°
2026-04-26 10:28 9.44539 100.05031 5213 ft 279 kts 248°
2026-04-26 10:28 9.43880 100.03158 5991 ft 284 kts 249°
2026-04-26 10:29 9.43228 100.01262 6791 ft 287 kts 249°
2026-04-26 10:29 9.42547 99.99342 7532 ft 292 kts 248°
2026-04-26 10:29 9.41854 99.97397 8291 ft 296 kts 250°
2026-04-26 10:29 9.41233 99.95397 9083 ft 300 kts 252°
2026-04-26 10:30 9.40617 99.93307 9405 ft 322 kts 253°
2026-04-26 10:30 9.39958 99.91050 9680 ft 343 kts 253°
2026-04-26 10:30 9.39268 99.88691 10126 ft 355 kts 252°
2026-04-26 10:30 9.38555 99.86274 10724 ft 359 kts 252°
2026-04-26 10:31 9.37837 99.83854 11495 ft 359 kts 252°
2026-04-26 10:31 9.37109 99.81410 12080 ft 365 kts 252°
2026-04-26 10:31 9.36379 99.78970 12777 ft 367 kts 252°
2026-04-26 10:31 9.35632 99.76476 13362 ft 373 kts 252°
2026-04-26 10:32 9.34875 99.73952 14003 ft 374 kts 252°
2026-04-26 10:32 9.34114 99.71417 14541 ft 379 kts 252°
2026-04-26 10:32 9.33342 99.68842 15072 ft 383 kts 252°
2026-04-26 10:32 9.32566 99.66259 15677 ft 385 kts 252°
2026-04-26 10:33 9.31781 99.63644 16153 ft 390 kts 252°
2026-04-26 10:33 9.30989 99.61009 16754 ft 392 kts 252°
2026-04-26 10:33 9.30189 99.58347 17222 ft 397 kts 252°
2026-04-26 10:33 9.29384 99.55668 17802 ft 399 kts 252°
2026-04-26 10:34 9.28572 99.52965 18216 ft 404 kts 252°
2026-04-26 10:34 9.27752 99.50240 18741 ft 404 kts 252°
2026-04-26 10:34 9.26930 99.47505 19161 ft 408 kts 252°
2026-04-26 10:34 9.26100 99.44745 19582 ft 411 kts 252°
2026-04-26 10:35 9.25269 99.41977 20093 ft 411 kts 253°
2026-04-26 10:35 9.24733 99.39147 20395 ft 418 kts 265°
2026-04-26 10:35 9.24743 99.36208 20914 ft 417 kts 276°
2026-04-26 10:35 9.25263 99.33317 21364 ft 419 kts 284°
2026-04-26 10:36 9.26025 99.30454 21720 ft 423 kts 286°
2026-04-26 10:36 9.26840 99.27583 22182 ft 424 kts 287°
2026-04-26 10:36 9.27666 99.24710 22585 ft 427 kts 287°
2026-04-26 10:36 9.28491 99.21812 22964 ft 430 kts 287°
2026-04-26 10:37 9.29310 99.18899 23420 ft 430 kts 286°
2026-04-26 10:37 9.30118 99.15985 23750 ft 432 kts 286°
2026-04-26 10:37 9.30928 99.13035 24020 ft 436 kts 286°
2026-04-26 10:37 9.31736 99.10072 24370 ft 437 kts 286°
2026-04-26 10:38 9.32544 99.07103 24730 ft 438 kts 286°
2026-04-26 10:38 9.33348 99.04140 24979 ft 442 kts 286°
2026-04-26 10:38 9.34166 99.01130 25299 ft 444 kts 286°
2026-04-26 10:38 9.34983 98.98116 25670 ft 445 kts 286°
2026-04-26 10:39 9.35804 98.95087 25944 ft 448 kts 286°
2026-04-26 10:39 9.36631 98.92038 26234 ft 450 kts 286°
2026-04-26 10:39 9.37464 98.88966 26546 ft 452 kts 286°
2026-04-26 10:39 9.38298 98.85891 26835 ft 454 kts 286°
2026-04-26 10:40 9.39136 98.82797 27116 ft 456 kts 287°
2026-04-26 10:40 9.39979 98.79685 27393 ft 458 kts 287°
2026-04-26 10:40 9.40813 98.76607 27695 ft 459 kts 287°
2026-04-26 10:40 9.41658 98.73486 27951 ft 462 kts 286°
2026-04-26 10:41 9.42510 98.70341 28206 ft 464 kts 286°
2026-04-26 10:41 9.43366 98.67175 28495 ft 465 kts 286°
2026-04-26 10:41 9.44222 98.64009 28769 ft 467 kts 286°
2026-04-26 10:41 9.45079 98.60833 29038 ft 468 kts 286°
2026-04-26 10:42 9.45941 98.57646 29274 ft 470 kts 286°
2026-04-26 10:42 9.46512 98.55529 29427 ft 472 kts 286°
2026-04-26 10:42 9.47673 98.51229 29746 ft 474 kts 286°
2026-04-26 10:42 9.48543 98.48005 29966 ft 475 kts 286°
2026-04-26 10:43 9.49416 98.44771 30164 ft 477 kts 286°
2026-04-26 10:43 9.50280 98.41565 30357 ft 478 kts 286°
2026-04-26 10:43 9.51157 98.38311 30558 ft 479 kts 286°
2026-04-26 10:43 9.52036 98.35050 30784 ft 480 kts 286°
2026-04-26 10:44 9.52912 98.31796 31069 ft 478 kts 286°
2026-04-26 10:44 9.53787 98.28547 31380 ft 477 kts 286°
2026-04-26 10:44 9.54658 98.25310 31671 ft 476 kts 286°
2026-04-26 10:44 9.55529 98.22072 31956 ft 475 kts 286°
2026-04-26 10:45 9.56398 98.18841 32217 ft 475 kts 286°
2026-04-26 10:45 9.57266 98.15611 32490 ft 475 kts 286°
2026-04-26 10:45 9.58134 98.12382 32778 ft 474 kts 285°
2026-04-26 10:45 9.58999 98.09161 33077 ft 473 kts 285°
2026-04-26 10:46 9.59863 98.05944 33374 ft 472 kts 285°
2026-04-26 10:46 9.60724 98.02733 33663 ft 472 kts 285°
2026-04-26 10:46 9.61583 97.99532 33916 ft 471 kts 285°
2026-04-26 10:46 9.62442 97.96330 34176 ft 470 kts 285°
2026-04-26 10:47 9.63298 97.93138 34447 ft 469 kts 285°
2026-04-26 10:47 9.64153 97.89946 34688 ft 468 kts 285°
2026-04-26 10:47 9.65006 97.86763 34944 ft 468 kts 285°
2026-04-26 10:47 9.65855 97.83590 35202 ft 466 kts 285°
2026-04-26 10:48 9.66693 97.80460 35452 ft 465 kts 285°
2026-04-26 10:48 9.67538 97.77302 35719 ft 464 kts 285°
2026-04-26 10:48 9.68381 97.74150 35983 ft 462 kts 285°
2026-04-26 10:48 9.69222 97.71003 36226 ft 461 kts 285°
2026-04-26 10:49 9.70062 97.67859 36457 ft 461 kts 285°
2026-04-26 10:49 9.70899 97.64728 36702 ft 459 kts 285°
2026-04-26 10:49 9.71733 97.61605 36942 ft 458 kts 285°
2026-04-26 10:49 9.72564 97.58490 37176 ft 457 kts 285°
2026-04-26 10:50 9.73114 97.56429 37327 ft 457 kts 285°
2026-04-26 10:50 9.73943 97.53322 37542 ft 456 kts 285°
2026-04-26 10:50 9.74770 97.50220 37747 ft 455 kts 285°
2026-04-26 10:50 9.75596 97.47120 37820 ft 457 kts 285°
2026-04-26 10:51 9.78084 97.37778 37810 ft 455 kts 285°
2026-04-26 10:52 9.79727 97.31602 37822 ft 452 kts 285°
2026-04-26 10:52 9.81358 97.25467 37822 ft 449 kts 285°
2026-04-26 10:53 9.82982 97.19355 37832 ft 448 kts 285°
2026-04-26 10:53 9.84592 97.13292 37830 ft 449 kts 285°
2026-04-26 10:54 9.87029 97.04100 37838 ft 452 kts 285°
2026-04-26 10:54 9.88664 96.97929 37833 ft 454 kts 285°
2026-04-26 10:55 9.90308 96.91719 37832 ft 457 kts 285°
2026-04-26 10:55 9.91960 96.85475 37831 ft 459 kts 285°
2026-04-26 10:56 9.93616 96.79206 37833 ft 460 kts 285°
2026-04-26 10:56 9.95266 96.72955 37832 ft 462 kts 285°
2026-04-26 10:57 9.96929 96.66654 37837 ft 461 kts 285°
2026-04-26 10:57 9.98587 96.60366 37832 ft 461 kts 285°
2026-04-26 10:58 10.00282 96.54103 37832 ft 459 kts 289°
2026-04-26 10:58 10.02473 96.48030 37835 ft 458 kts 291°
2026-04-26 10:59 10.04799 96.42023 37832 ft 457 kts 292°
2026-04-26 10:59 10.07099 96.36019 37835 ft 456 kts 291°
2026-04-26 11:00 10.09357 96.30017 37834 ft 455 kts 291°
2026-04-26 11:00 10.11597 96.24015 37833 ft 454 kts 291°
2026-04-26 11:01 10.13820 96.18055 37836 ft 454 kts 291°
2026-04-26 11:01 10.16060 96.12050 37836 ft 454 kts 291°
2026-04-26 11:02 10.18300 96.06047 37836 ft 455 kts 291°
2026-04-26 11:02 10.20546 96.00023 37838 ft 456 kts 291°
2026-04-26 11:03 10.22792 95.93994 37836 ft 457 kts 291°
2026-04-26 11:03 10.25044 95.87947 37835 ft 458 kts 291°
2026-04-26 11:04 10.27286 95.81924 37837 ft 459 kts 291°
2026-04-26 11:04 10.29543 95.75853 37837 ft 460 kts 291°
2026-04-26 11:05 10.31808 95.69758 37838 ft 461 kts 291°
2026-04-26 11:05 10.34119 95.63680 37857 ft 461 kts 292°
2026-04-26 11:06 10.36409 95.57580 37840 ft 462 kts 291°
2026-04-26 11:06 10.38632 95.51461 37833 ft 462 kts 291°
2026-04-26 11:07 10.40876 95.45333 37829 ft 462 kts 291°
2026-04-26 11:07 10.43129 95.39233 37835 ft 461 kts 291°
2026-04-26 11:08 10.45385 95.33139 37836 ft 460 kts 291°
2026-04-26 11:08 10.47624 95.27089 37832 ft 460 kts 291°
2026-04-26 11:09 10.49873 95.21008 37837 ft 459 kts 291°
2026-04-26 11:09 10.52119 95.14929 37833 ft 459 kts 291°
2026-04-26 11:10 10.54362 95.08854 37839 ft 458 kts 291°
2026-04-26 11:10 10.56601 95.02786 37837 ft 458 kts 291°
2026-04-26 11:11 10.58839 94.96717 37835 ft 458 kts 291°
2026-04-26 11:11 10.61075 94.90648 37842 ft 458 kts 291°
2026-04-26 11:12 10.63308 94.84584 37834 ft 458 kts 291°
2026-04-26 11:12 10.65540 94.78519 37838 ft 458 kts 291°
2026-04-26 11:13 10.67773 94.72449 37841 ft 458 kts 291°
2026-04-26 11:13 10.69990 94.66414 37840 ft 459 kts 291°
2026-04-26 11:14 10.71109 94.63369 37604 ft 463 kts 291°
2026-04-26 11:14 10.72241 94.60288 37090 ft 465 kts 291°
2026-04-26 11:14 10.73370 94.57211 36510 ft 464 kts 291°
2026-04-26 11:14 10.74499 94.54134 35950 ft 463 kts 291°
2026-04-26 11:15 10.75625 94.51065 35336 ft 464 kts 291°
2026-04-26 11:15 10.76758 94.47975 34677 ft 467 kts 291°
2026-04-26 11:15 10.77896 94.44869 34004 ft 470 kts 291°
2026-04-26 11:15 10.79041 94.41745 33235 ft 473 kts 291°
2026-04-26 11:16 10.80193 94.38602 32524 ft 474 kts 291°
2026-04-26 11:16 10.81345 94.35454 31962 ft 472 kts 291°
2026-04-26 11:16 10.82485 94.32340 31452 ft 469 kts 291°
2026-04-26 11:16 10.83622 94.29232 30944 ft 467 kts 291°
2026-04-26 11:17 10.84736 94.26184 30444 ft 465 kts 291°
2026-04-26 11:17 10.85859 94.23113 29939 ft 463 kts 291°
2026-04-26 11:17 10.86981 94.20045 29361 ft 460 kts 291°
2026-04-26 11:17 10.88092 94.17005 28832 ft 457 kts 291°
2026-04-26 11:18 10.89195 94.13984 28312 ft 453 kts 291°
2026-04-26 11:18 10.90287 94.10992 27801 ft 450 kts 291°
2026-04-26 11:18 10.91372 94.08021 27302 ft 446 kts 291°
2026-04-26 11:18 10.92450 94.05067 26825 ft 442 kts 291°
2026-04-26 11:19 10.93519 94.02136 26297 ft 440 kts 291°
2026-04-26 11:19 10.94581 93.99223 25802 ft 438 kts 291°
2026-04-26 11:19 10.95638 93.96324 25295 ft 436 kts 291°
2026-04-26 11:19 10.96687 93.93446 24992 ft 429 kts 291°
2026-04-26 11:20 10.97708 93.90643 24881 ft 417 kts 291°
2026-04-26 11:20 10.98368 93.88829 24840 ft 408 kts 291°
2026-04-26 11:20 10.99657 93.85288 24819 ft 389 kts 291°
2026-04-26 11:20 11.00580 93.82750 24814 ft 376 kts 291°
2026-04-26 11:21 11.01462 93.80327 24792 ft 364 kts 291°
2026-04-26 11:21 11.02329 93.77942 24688 ft 355 kts 291°
2026-04-26 11:21 11.03178 93.75608 24372 ft 349 kts 291°
2026-04-26 11:21 11.04020 93.73294 23950 ft 347 kts 291°
2026-04-26 11:22 11.04859 93.70987 23472 ft 348 kts 291°
2026-04-26 11:22 11.05715 93.68636 22349 ft 363 kts 291°
2026-04-26 11:22 11.06621 93.66147 21070 ft 387 kts 291°
2026-04-26 11:22 11.07575 93.63522 20183 ft 400 kts 291°
2026-04-26 11:23 11.08540 93.60865 19697 ft 399 kts 291°
2026-04-26 11:23 11.09498 93.58222 19329 ft 394 kts 291°
2026-04-26 11:23 11.10442 93.55617 18993 ft 389 kts 291°
2026-04-26 11:23 11.11378 93.53036 18572 ft 387 kts 291°
2026-04-26 11:24 11.12308 93.50471 18141 ft 386 kts 290°
2026-04-26 11:24 11.13222 93.47950 17690 ft 384 kts 291°
2026-04-26 11:24 11.14142 93.45410 17261 ft 380 kts 291°
2026-04-26 11:24 11.15058 93.42884 16827 ft 377 kts 290°
2026-04-26 11:25 11.15965 93.40378 16403 ft 375 kts 290°
2026-04-26 11:25 11.16864 93.37897 15983 ft 373 kts 290°
2026-04-26 11:25 11.17758 93.35426 15572 ft 370 kts 290°
2026-04-26 11:25 11.18646 93.32972 15165 ft 367 kts 290°
2026-04-26 11:26 11.19526 93.30540 14753 ft 365 kts 290°
2026-04-26 11:26 11.20402 93.28119 14369 ft 363 kts 290°
2026-04-26 11:26 11.21270 93.25717 14006 ft 359 kts 290°
2026-04-26 11:26 11.22120 93.23367 13623 ft 357 kts 290°
2026-04-26 11:27 11.22987 93.20968 13188 ft 355 kts 290°
2026-04-26 11:27 11.23828 93.18640 12774 ft 353 kts 290°
2026-04-26 11:27 11.24672 93.16303 12352 ft 351 kts 290°
2026-04-26 11:27 11.25514 93.13971 11924 ft 350 kts 290°
2026-04-26 11:28 11.26351 93.11653 11526 ft 348 kts 290°
2026-04-26 11:28 11.27184 93.09346 11110 ft 346 kts 289°
2026-04-26 11:28 11.28007 93.07065 10657 ft 341 kts 289°
2026-04-26 11:28 11.28826 93.04794 10040 ft 341 kts 289°
2026-04-26 11:29 11.29644 93.02524 9487 ft 339 kts 289°
2026-04-26 11:29 11.30452 93.00284 8969 ft 335 kts 289°
2026-04-26 11:29 11.31249 92.98070 8350 ft 331 kts 290°
2026-04-26 11:29 11.32036 92.95886 7912 ft 322 kts 290°
2026-04-26 11:30 11.32804 92.93753 7569 ft 319 kts 290°
2026-04-26 11:30 11.33307 92.92358 7465 ft 313 kts 290°
2026-04-26 11:30 11.34286 92.89639 7260 ft 303 kts 290°
2026-04-26 11:30 11.35000 92.87654 7125 ft 294 kts 290°
2026-04-26 11:31 11.35696 92.85720 6988 ft 287 kts 290°
2026-04-26 11:31 11.36380 92.83817 6692 ft 286 kts 290°
2026-04-26 11:31 11.37062 92.81923 6418 ft 284 kts 290°
2026-04-26 11:31 11.37742 92.80030 6114 ft 284 kts 291°
2026-04-26 11:32 11.38421 92.78142 5812 ft 283 kts 290°
2026-04-26 11:32 11.39099 92.76257 5505 ft 283 kts 290°
2026-04-26 11:32 11.39774 92.74377 5207 ft 282 kts 290°
2026-04-26 11:32 11.40448 92.72502 4929 ft 281 kts 291°
2026-04-26 11:33 11.41107 92.70665 4830 ft 272 kts 291°
2026-04-26 11:33 11.41751 92.68872 4601 ft 266 kts 291°
2026-04-26 11:33 11.42378 92.67127 4343 ft 259 kts 291°
2026-04-26 11:33 11.42975 92.65463 4228 ft 247 kts 291°
2026-04-26 11:34 11.43554 92.63848 4101 ft 239 kts 291°
2026-04-26 11:34 11.44115 92.62293 4030 ft 229 kts 292°
2026-04-26 11:34 11.45003 92.61003 3874 ft 220 kts 326°
2026-04-26 11:34 11.46388 92.60498 3680 ft 208 kts
2026-04-26 11:35 11.47316 92.60645 3549 ft 202 kts 25°
2026-04-26 11:35 11.48508 92.61341 3407 ft 199 kts 32°
2026-04-26 11:35 11.49673 92.62118 3185 ft 202 kts 36°
2026-04-26 11:35 11.50821 92.62956 2930 ft 203 kts 37°
2026-04-26 11:36 11.51956 92.63809 2672 ft 201 kts 37°
2026-04-26 11:36 11.53076 92.64653 2408 ft 199 kts 37°
2026-04-26 11:36 11.54178 92.65484 2154 ft 195 kts 38°
2026-04-26 11:36 11.55266 92.66303 1908 ft 193 kts 37°
2026-04-26 11:37 11.56337 92.67109 1647 ft 189 kts 37°
2026-04-26 11:37 11.57371 92.67888 1415 ft 179 kts 38°
2026-04-26 11:37 11.58335 92.68612 1232 ft 163 kts 37°
2026-04-26 11:37 11.59214 92.69275 994 ft 152 kts 37°
2026-04-26 11:38 11.60059 92.69910 822 ft 152 kts 37°
2026-04-26 11:38 11.60911 92.70553 641 ft 150 kts 37°
2026-04-26 11:38 11.61766 92.71195 431 ft 153 kts 38°
2026-04-26 11:38 11.62614 92.71844 233 ft 151 kts 36°
2026-04-26 11:39 11.63445 92.72458 104 ft 135 kts 39°
2026-04-26 11:39 11.64076 92.72926 95 ft 92 kts 38°
2026-04-26 11:39 11.64466 92.73227 89 ft 48 kts 37°
2026-04-26 11:39 11.64704 92.73402 85 ft 40 kts 32°
2026-04-26 11:40 11.64818 92.73407 84 ft 15 kts 306°
2026-04-26 11:40 11.64889 92.73362 84 ft 9 kts 329°
2026-04-26 11:40 11.64930 92.73325 81 ft 8 kts 340°
2026-04-26 11:40 11.64975 92.73350 81 ft 8 kts 62°
2026-04-26 11:41 11.64971 92.73377 80 ft 0 kts 122°